Wichita Jabara, KS

8:08 PM CDT on May 24, 2017 (GMT -0500)
Col Jabara

Weather History for KAAO - October, 2012

Change the Weather History Date:

Monday, October 29, 2012

  Actual Average (KIAB) Record (KIAB)
Temperature  
Mean Temperature 50 °F -  
Max Temperature 64 °F 61 °F 82 °F (2016)
Min Temperature 36 °F 43 °F 33 °F (2011)
Degree Days  
Heating Degree Days 15    
Moisture  
Dew Point 29 °F    
Average Humidity 48    
Maximum Humidity 73    
Minimum Humidity 27    
Precipitation  
Precipitation 0.00 in - - ()
Sea Level Pressure  
Sea Level Pressure 30.17 in    
Wind  
Wind Speed 10 mph (South)    
Max Wind Speed 17 mph    
Max Gust Speed 26 mph    
Visibility 10 miles    
Events      
Averages and records for this station are not official NWS values.
T = Trace of Precipitation, MM = Missing Value Source: NWS Daily Summary

Daily Weather History Graph

Daily Weather History Graph

Search for Another Location

Airport or City:

Trip Planner

Search our weather history database for the weather conditions in past years. The results will help you decide how hot, cold, wet, or windy it might be!

Date:

Astronomy

Oct. 29, 2012 Rise Set
Actual Time 7:51 AM CDT 6:32 PM CDT
Civil Twilight 7:24 AM CDT 6:59 PM CDT
Nautical Twilight 6:53 AM CDT 7:30 PM CDT
Astronomical Twilight 6:23 AM CDT 8:01 PM CDT
Moon 6:26 PM CDT (10/29) 7:42 AM CDT (10/29)
Length of Visible Light 11h 35m
Length of Day
10h 41m
Full, 100% of the Moon is Illuminated
Oct 29
Full
Oct 29
Full
Nov 6
Last Quarter
Nov 13
New
Nov 20
First Quarter

Hourly Weather History & Observations

Time (CDT) Temp. Windchill Dew Point Humidity Pressure Visibility Wind Dir Wind Speed Gust Speed Precip Events Conditions
12:54 AM 45.0 °F 40.1 °F 26.1 °F 48% 30.25 in 10.0 mi SSE 9.2 mph - N/A   Overcast
1:54 AM 43.0 °F 38.2 °F 26.1 °F 51% 30.24 in 10.0 mi SSE 8.1 mph - N/A   Mostly Cloudy
2:54 AM 43.0 °F 38.8 °F 27.0 °F 53% 30.25 in 10.0 mi SSE 6.9 mph - N/A   Clear
3:54 AM 43.0 °F 36.8 °F 27.0 °F 53% 30.22 in 10.0 mi South 11.5 mph - N/A   Clear
4:54 AM 39.9 °F 33.4 °F 28.0 °F 63% 30.23 in 10.0 mi SSE 10.4 mph - N/A   Clear
5:54 AM 37.0 °F 31.0 °F 28.0 °F 70% 30.25 in 10.0 mi SSE 8.1 mph - N/A   Clear
6:54 AM 37.9 °F 31.5 °F 28.0 °F 68% 30.25 in 10.0 mi SSE 9.2 mph - N/A   Clear
7:54 AM 36.0 °F 29.6 °F 28.0 °F 73% 30.26 in 10.0 mi SSE 8.1 mph - N/A   Clear
8:54 AM 41.0 °F 34.3 °F 30.0 °F 65% 30.27 in 10.0 mi South 11.5 mph - N/A   Mostly Cloudy
9:54 AM 46.9 °F - 30.0 °F 52% 30.25 in 10.0 mi South 15.0 mph - N/A   Mostly Cloudy
10:54 AM 52.0 °F - 28.0 °F 40% 30.25 in 10.0 mi SSW 17.3 mph - N/A   Clear
11:54 AM 57.0 °F - 28.9 °F 34% 30.23 in 10.0 mi South 16.1 mph 24.2 mph N/A   Clear
12:54 PM 59.0 °F - 28.9 °F 32% 30.20 in 10.0 mi South 17.3 mph 25.3 mph N/A   Clear
1:54 PM 62.1 °F - 30.0 °F 30% 30.15 in 10.0 mi SSW 17.3 mph 26.5 mph N/A   Clear
2:54 PM 64.0 °F - 30.0 °F 28% 30.12 in 10.0 mi South 17.3 mph 23.0 mph N/A   Clear
3:54 PM 64.9 °F - 30.0 °F 27% 30.09 in 10.0 mi South 17.3 mph 23.0 mph N/A   Clear
4:54 PM 63.0 °F - 30.9 °F 30% 30.09 in 10.0 mi SSW 16.1 mph 24.2 mph N/A   Clear
5:54 PM 59.0 °F - 32.0 °F 36% 30.08 in 10.0 mi South 6.9 mph - N/A   Clear
6:54 PM 53.1 °F - 32.0 °F 45% 30.09 in 10.0 mi SE 4.6 mph - N/A   Clear
7:54 PM 50.0 °F - 32.0 °F 50% 30.10 in 10.0 mi SSE 6.9 mph - N/A   Clear
8:54 PM 48.0 °F - 32.0 °F 54% 30.09 in 10.0 mi SSE 6.9 mph - N/A   Clear
9:54 PM 46.9 °F - 30.9 °F 54% 30.09 in 10.0 mi SSE 6.9 mph - N/A   Clear
10:54 PM 48.0 °F - 30.9 °F 52% 30.08 in 10.0 mi South 8.1 mph - N/A   Clear
11:54 PM 45.0 °F 41.2 °F 30.0 °F 56% 30.06 in 10.0 mi South 6.9 mph - N/A   Clear